| time (UTC) | temp C | wind direction | speed KPH | gust KPH | rain 1hr cm | rain 24hr cm | rain mn cm | humidity % | barometer mb |
| 20260505035507 | 8 | 225 | 0.0 | 3.2 | 0.15 | 0.56 | 0.56 | 90 | 1011.8 |
| 20260505035007 | 8 | 240 | 1.6 | 3.2 | 0.23 | 0.56 | 0.56 | 90 | 1011.7 |
| 20260505034513 | 8 | 215 | 0.0 | 3.2 | 0.28 | 0.56 | 0.56 | 90 | 1011.8 |
| 20260505034012 | 8 | 226 | 0.0 | 3.2 | 0.36 | 0.56 | 0.56 | 90 | 1011.8 |
| 20260505033513 | 8 | 231 | 0.0 | 3.2 | 0.38 | 0.53 | 0.53 | 89 | 1011.9 |
| 20260505033017 | 8 | 224 | 0.0 | 3.2 | 0.43 | 0.53 | 0.53 | 89 | 1011.9 |
| 20260505032505 | 8 | 229 | 0.0 | 3.2 | 0.48 | 0.53 | 0.53 | 89 | 1012.0 |
| 20260505032012 | 8 | 234 | 0.0 | 3.2 | 0.51 | 0.53 | 0.53 | 88 | 1012.0 |
| 20260505031512 | 8 | 229 | 0.0 | 3.2 | 0.51 | 0.53 | 0.53 | 87 | 1011.9 |
| 20260505031008 | 8 | 252 | 1.6 | 4.8 | 0.48 | 0.51 | 0.51 | 87 | 1011.8 |
| 20260505030506 | 8 | 261 | 1.6 | 12.9 | 0.46 | 0.48 | 0.48 | 86 | 1011.9 |
| 20260505030018 | 9 | 288 | 3.2 | 12.9 | 0.43 | 0.46 | 0.46 | 85 | 1011.9 |
| 20260505025503 | 9 | 259 | 1.6 | 8.0 | 0.41 | 0.41 | 0.41 | 86 | 1011.8 |
| 20260505025004 | 9 | 221 | 1.6 | 12.9 | 0.33 | 0.33 | 0.33 | 86 | 1011.7 |
| 20260505024515 | 10 | 270 | 3.2 | 12.9 | 0.28 | 0.28 | 0.28 | 86 | 1011.6 |
| 20260505024005 | 10 | 237 | 1.6 | 8.0 | 0.20 | 0.20 | 0.20 | 85 | 1011.5 |
| 20260505023505 | 10 | 276 | 3.2 | 8.0 | 0.15 | 0.15 | 0.15 | 84 | 1011.4 |
| 20260505023011 | 10 | 153 | 0.0 | 3.2 | 0.10 | 0.10 | 0.10 | 83 | 1011.4 |
| 20260505022510 | 10 | 124 | 0.0 | 3.2 | 0.05 | 0.05 | 0.05 | 81 | 1011.2 |
| 20260505022006 | 10 | 123 | 0.0 | 0.0 | 0.03 | 0.03 | 0.03 | 79 | 1011.0 |
| 20260505021503 | 10 | 123 | 0.0 | 0.0 | 0.03 | 0.03 | 0.03 | 78 | 1011.0 |
| 20260505021004 | 10 | 123 | 0.0 | 1.6 | 0.03 | 0.03 | 0.03 | 77 | 1010.9 |
| 20260505020503 | 10 | 123 | 0.0 | 3.2 | 0.03 | 0.03 | 0.03 | 76 | 1010.8 |
| 20260505020006 | 10 | 123 | 0.0 | 3.2 | 0.03 | 0.03 | 0.03 | 75 | 1010.9 |
| 20260505015506 | 10 | 116 | 0.0 | 3.2 | 0.00 | 0.00 | 0.00 | 76 | 1011.0 |
| 20260505015010 | 10 | 115 | 0.0 | 3.2 | 0.00 | 0.00 | 0.00 | 75 | 1010.9 |
| 20260505014519 | 10 | 128 | 0.0 | 3.2 | 0.00 | 0.00 | 0.00 | 75 | 1010.8 |
| 20260505014008 | 10 | 121 | 0.0 | 12.9 | 0.00 | 0.00 | 0.00 | 72 | 1010.7 |
| 20260505013512 | 11 | 87 | 1.6 | 16.1 | 0.00 | 0.00 | 0.00 | 70 | 1010.6 |
| 20260505013016 | 11 | 349 | 3.2 | 16.1 | 0.00 | 0.00 | 0.00 | 70 | 1010.5 |
| 20260505012502 | 11 | 344 | 6.4 | 19.3 | 0.00 | 0.00 | 0.00 | 67 | 1010.5 |
| 20260505012005 | 12 | 24 | 8.0 | 19.3 | 0.00 | 0.00 | 0.00 | 61 | 1010.6 |
| 20260505011514 | 13 | 343 | 6.4 | 22.5 | 0.00 | 0.00 | 0.00 | 57 | 1010.5 |
| 20260505011006 | 13 | 315 | 4.8 | 22.5 | 0.00 | 0.00 | 0.00 | 53 | 1010.5 |
| 20260505010509 | 14 | 55 | 8.0 | 22.5 | 0.00 | 0.00 | 0.00 | 50 | 1010.5 |
| 20260505010020 | 14 | 60 | 3.2 | 12.9 | 0.00 | 0.00 | 0.00 | 49 | 1010.1 |
| 20260505005507 | 14 | 5 | 1.6 | 6.4 | 0.00 | 0.00 | 0.00 | 48 | 1010.1 |
| 20260505005004 | 14 | 341 | 3.2 | 8.0 | 0.00 | 0.00 | 0.00 | 48 | 1010.0 |
| 20260505004505 | 14 | 350 | 1.6 | 8.0 | 0.00 | 0.00 | 0.00 | 48 | 1009.9 |
| 20260505004004 | 14 | 339 | 4.8 | 9.7 | 0.00 | 0.00 | 0.00 | 48 | 1009.9 |
| 20260505003511 | 15 | 333 | 3.2 | 9.7 | 0.00 | 0.00 | 0.00 | 48 | 1009.9 |
| 20260505003017 | 15 | 339 | 4.8 | 9.7 | 0.00 | 0.00 | 0.00 | 48 | 1009.9 |
| 20260505002508 | 15 | 352 | 3.2 | 9.7 | 0.00 | 0.00 | 0.00 | 48 | 1009.8 |
| 20260505002010 | 15 | 318 | 1.6 | 9.7 | 0.00 | 0.00 | 0.00 | 49 | 1009.9 |
| 20260505001522 | 15 | 344 | 3.2 | 8.0 | 0.00 | 0.00 | 0.00 | 49 | 1009.7 |
| 20260505001005 | 15 | 34 | 1.6 | 8.0 | 0.00 | 0.00 | 0.00 | 50 | 1009.8 |
| 20260505000503 | 15 | 360 | 1.6 | 4.8 | 0.00 | 0.00 | 0.00 | 49 | 1009.6 |
| 20260505000025 | 15 | 18 | 1.6 | 6.4 | 0.00 | 0.00 | 0.00 | 48 | 1009.5 |
| 20260504235509 | 15 | 333 | 0.0 | 8.0 | 0.00 | 0.00 | 0.00 | 49 | 1009.5 |
| 20260504235007 | 15 | 38 | 4.8 | 8.0 | 0.00 | 0.00 | 0.00 | 49 | 1009.6 |
| 20260504234522 | 15 | 316 | 3.2 | 8.0 | 0.00 | 0.00 | 0.00 | 47 | 1009.7 |
| 20260504234006 | 15 | 328 | 0.0 | 4.8 | 0.00 | 0.00 | 0.00 | 49 | 1009.5 |
| 20260504233509 | 15 | 309 | 0.0 | 4.8 | 0.00 | 0.00 | 0.00 | 49 | 1009.5 |
| 20260504233006 | 15 | 313 | 0.0 | 4.8 | 0.00 | 0.00 | 0.00 | 49 | 1009.6 |
| 20260504232504 | 15 | 347 | 1.6 | 4.8 | 0.00 | 0.00 | 0.00 | 48 | 1009.4 |
| 20260504232006 | 15 | 333 | 1.6 | 3.2 | 0.00 | 0.00 | 0.00 | 51 | 1009.4 |
| 20260504231525 | 15 | 168 | 0.0 | 3.2 | 0.00 | 0.00 | 0.00 | 50 | 1009.1 |
| 20260504231012 | 15 | 120 | 0.0 | 3.2 | 0.00 | 0.00 | 0.00 | 48 | 1009.3 |
| 20260504230507 | 15 | 59 | 0.0 | 3.2 | 0.00 | 0.00 | 0.00 | 52 | 1009.4 |
| 20260504230022 | 15 | 198 | 0.0 | 6.4 | 0.00 | 0.00 | 0.00 | 53 | 1009.3 |
| 20260504225507 | 15 | 292 | 1.6 | 12.9 | 0.00 | 0.00 | 0.00 | 49 | 1009.4 |
| 20260504225005 | 15 | 235 | 3.2 | 12.9 | 0.00 | 0.00 | 0.00 | 44 | 1009.6 |
| 20260504224509 | 16 | 202 | 3.2 | 11.3 | 0.00 | 0.00 | 0.00 | 43 | 1009.6 |
| 20260504224009 | 16 | 274 | 0.0 | 9.7 | 0.00 | 0.00 | 0.00 | 41 | 1009.7 |
| 20260504223506 | 16 | 316 | 0.0 | 9.7 | 0.00 | 0.00 | 0.00 | 43 | 1009.7 |
| 20260504223018 | 16 | 212 | 1.6 | 11.3 | 0.00 | 0.00 | 0.00 | 41 | 1009.7 |
| 20260504222506 | 16 | 271 | 1.6 | 11.3 | 0.00 | 0.00 | 0.00 | 42 | 1009.8 |
| 20260504222014 | 16 | 280 | 1.6 | 8.0 | 0.00 | 0.00 | 0.00 | 40 | 1009.7 |
| 20260504221524 | 16 | 271 | 1.6 | 6.4 | 0.00 | 0.00 | 0.00 | 40 | 1009.5 |
| 20260504221005 | 16 | 283 | 1.6 | 4.8 | 0.00 | 0.00 | 0.00 | 40 | 1009.2 |
| 20260504220504 | 16 | 265 | 1.6 | 4.8 | 0.00 | 0.00 | 0.00 | 40 | 1008.9 |
| 20260504220019 | 16 | 336 | 0.0 | 12.9 | 0.00 | 0.00 | 0.00 | 40 | 1008.6 |
| 20260504215507 | 16 | 324 | 1.6 | 19.3 | 0.00 | 0.00 | 0.00 | 39 | 1008.3 |
| 20260504215009 | 16 | 9 | 9.7 | 19.3 | 0.00 | 0.00 | 0.00 | 40 | 1008.4 |
| 20260504214524 | 16 | 52 | 3.2 | 20.9 | 0.00 | 0.00 | 0.00 | 39 | 1008.3 |
| 20260504214010 | 16 | 30 | 8.0 | 27.4 | 0.00 | 0.00 | 0.00 | 40 | 1008.3 |
| 20260504213511 | 16 | 11 | 9.7 | 27.4 | 0.00 | 0.00 | 0.00 | 39 | 1008.3 |
| 20260504213010 | 17 | 22 | 9.7 | 25.7 | 0.00 | 0.00 | 0.00 | 38 | 1008.3 |
| 20260504212509 | 17 | 352 | 6.4 | 29.0 | 0.00 | 0.00 | 0.00 | 36 | 1008.5 |
| 20260504212006 | 17 | 34 | 12.9 | 29.0 | 0.00 | 0.00 | 0.00 | 35 | 1008.6 |
| 20260504211516 | 17 | 339 | 6.4 | 24.1 | 0.00 | 0.00 | 0.00 | 35 | 1008.4 |
| 20260504211007 | 17 | 15 | 8.0 | 27.4 | 0.00 | 0.00 | 0.00 | 34 | 1008.5 |
| 20260504210511 | 18 | 34 | 14.5 | 27.4 | 0.00 | 0.00 | 0.00 | 34 | 1008.4 |
| 20260504210027 | 18 | 50 | 11.3 | 32.2 | 0.00 | 0.00 | 0.00 | 33 | 1008.2 |
| 20260504205511 | 18 | 76 | 9.7 | 32.2 | 0.00 | 0.00 | 0.00 | 31 | 1008.5 |
| 20260504205007 | 20 | 5 | 11.3 | 29.0 | 0.00 | 0.00 | 0.00 | 27 | 1008.5 |
| 20260504204511 | 22 | 322 | 4.8 | 12.9 | 0.00 | 0.00 | 0.00 | 24 | 1008.5 |
| 20260504204007 | 21 | 180 | 3.2 | 17.7 | 0.00 | 0.00 | 0.00 | 26 | 1007.7 |
| 20260504203507 | 20 | 139 | 6.4 | 17.7 | 0.00 | 0.00 | 0.00 | 27 | 1007.6 |
| 20260504203031 | 20 | 142 | 6.4 | 14.5 | 0.00 | 0.00 | 0.00 | 29 | 1007.7 |
| 20260504202508 | 20 | 105 | 6.4 | 14.5 | 0.00 | 0.00 | 0.00 | 29 | 1007.8 |
| 20260504202013 | 19 | 150 | 6.4 | 19.3 | 0.00 | 0.00 | 0.00 | 29 | 1007.8 |
| 20260504201528 | 19 | 207 | 4.8 | 19.3 | 0.00 | 0.00 | 0.00 | 29 | 1007.9 |
| 20260504201005 | 20 | 178 | 6.4 | 19.3 | 0.00 | 0.00 | 0.00 | 29 | 1008.0 |
| 20260504200509 | 20 | 150 | 6.4 | 19.3 | 0.00 | 0.00 | 0.00 | 26 | 1008.0 |
| 20260504200018 | 21 | 108 | 4.8 | 19.3 | 0.00 | 0.00 | 0.00 | 25 | 1008.1 |
| 20260504195507 | 21 | 121 | 3.2 | 19.3 | 0.00 | 0.00 | 0.00 | 23 | 1008.0 |
| 20260504195011 | 21 | 282 | 3.2 | 17.7 | 0.00 | 0.00 | 0.00 | 21 | 1007.8 |
| 20260504194539 | 21 | 209 | 3.2 | 20.9 | 0.00 | 0.00 | 0.00 | 21 | 1007.7 |
| 20260504194008 | 22 | 239 | 9.7 | 20.9 | 0.00 | 0.00 | 0.00 | 20 | 1007.7 |
| 20260504193510 | 22 | 238 | 4.8 | 16.1 | 0.00 | 0.00 | 0.00 | 20 | 1007.7 |
| 20260504193016 | 22 | 253 | 8.0 | 16.1 | 0.00 | 0.00 | 0.00 | 21 | 1007.7 |
| 20260504192507 | 22 | 163 | 3.2 | 12.9 | 0.00 | 0.00 | 0.00 | 22 | 1007.5 |
| 20260504192010 | 22 | 275 | 3.2 | 12.9 | 0.00 | 0.00 | 0.00 | 22 | 1007.5 |
| 20260504191519 | 22 | 303 | 4.8 | 11.3 | 0.00 | 0.00 | 0.00 | 21 | 1007.5 |
| 20260504191009 | 22 | 209 | 4.8 | 14.5 | 0.00 | 0.00 | 0.00 | 21 | 1007.3 |
| 20260504190511 | 22 | 203 | 4.8 | 14.5 | 0.00 | 0.00 | 0.00 | 21 | 1007.4 |
| 20260504190029 | 22 | 319 | 4.8 | 16.1 | 0.00 | 0.00 | 0.00 | 22 | 1007.5 |
| 20260504185513 | 21 | 275 | 4.8 | 16.1 | 0.00 | 0.00 | 0.00 | 22 | 1007.5 |
| 20260504185004 | 21 | 250 | 4.8 | 17.7 | 0.00 | 0.00 | 0.00 | 22 | 1007.5 |
| 20260504184518 | 21 | 192 | 3.2 | 17.7 | 0.00 | 0.00 | 0.00 | 22 | 1007.6 |
| 20260504184009 | 21 | 271 | 4.8 | 11.3 | 0.00 | 0.00 | 0.00 | 21 | 1007.8 |
| 20260504183513 | 21 | 275 | 3.2 | 20.9 | 0.00 | 0.00 | 0.00 | 22 | 1007.9 |
| 20260504183025 | 21 | 235 | 4.8 | 20.9 | 0.00 | 0.00 | 0.00 | 23 | 1007.9 |
| 20260504182510 | 21 | 253 | 3.2 | 22.5 | 0.00 | 0.00 | 0.00 | 22 | 1008.0 |
| 20260504182012 | 21 | 250 | 4.8 | 22.5 | 0.00 | 0.00 | 0.00 | 23 | 1008.2 |
| 20260504181525 | 21 | 347 | 6.4 | 19.3 | 0.00 | 0.00 | 0.00 | 23 | 1008.2 |
| 20260504181010 | 21 | 342 | 3.2 | 16.1 | 0.00 | 0.00 | 0.00 | 24 | 1008.4 |
| 20260504180509 | 21 | 294 | 8.0 | 19.3 | 0.00 | 0.00 | 0.00 | 24 | 1008.6 |
| 20260504180021 | 21 | 298 | 4.8 | 19.3 | 0.00 | 0.00 | 0.00 | 24 | 1008.5 |
| 20260504175507 | 20 | 291 | 3.2 | 24.1 | 0.00 | 0.00 | 0.00 | 25 | 1008.7 |
| 20260504175011 | 20 | 215 | 9.7 | 24.1 | 0.00 | 0.00 | 0.00 | 25 | 1008.7 |
| 20260504174526 | 21 | 342 | 8.0 | 19.3 | 0.00 | 0.00 | 0.00 | 24 | 1008.8 |
| 20260504174008 | 21 | 289 | 4.8 | 22.5 | 0.00 | 0.00 | 0.00 | 25 | 1008.9 |
| 20260504173511 | 20 | 277 | 6.4 | 22.5 | 0.00 | 0.00 | 0.00 | 25 | 1008.9 |
| 20260504173018 | 20 | 321 | 8.0 | 20.9 | 0.00 | 0.00 | 0.00 | 25 | 1008.9 |
| 20260504172508 | 20 | 273 | 8.0 | 20.9 | 0.00 | 0.00 | 0.00 | 25 | 1009.1 |
| 20260504172010 | 20 | 309 | 3.2 | 17.7 | 0.00 | 0.00 | 0.00 | 27 | 1009.2 |
| 20260504171521 | 20 | 288 | 4.8 | 17.7 | 0.00 | 0.00 | 0.00 | 26 | 1009.3 |
| 20260504171014 | 20 | 292 | 4.8 | 14.5 | 0.00 | 0.00 | 0.00 | 27 | 1009.3 |
| 20260504170512 | 19 | 352 | 4.8 | 14.5 | 0.00 | 0.00 | 0.00 | 27 | 1009.4 |
| 20260504151002 | 16 | 221 | 0.0 | 9.7 | 0.00 | 0.00 | 0.00 | 30 | 1009.8 |
| 20260504150502 | 16 | 235 | 1.6 | 9.7 | 0.00 | 0.00 | 0.00 | 29 | 1009.8 |
| 20260504141004 | 10 | 281 | 1.6 | 6.4 | 0.00 | 0.00 | 0.00 | 45 | 1009.8 |
| 20260504140502 | 10 | 257 | 1.6 | 6.4 | 0.00 | 0.00 | 0.00 | 50 | 1009.8 |
| 20260504130505 | 6 | 165 | 0.0 | 3.2 | 0.00 | 0.00 | 0.00 | 57 | 1009.6 |
| 20260504110505 | 5 | 179 | 0.0 | 3.2 | 0.00 | 0.00 | 0.00 | 60 | 1009.5 |
| 20260504100502 | 5 | 171 | 0.0 | 3.2 | 0.00 | 0.00 | 0.00 | 58 | 1009.8 |
| 20260504082008 | 7 | 187 | 0.0 | 3.2 | 0.00 | 0.00 | 0.00 | 48 | 1010.7 |
| 20260504081523 | 7 | 192 | 1.6 | 3.2 | 0.00 | 0.00 | 0.00 | 47 | 1010.7 |
| 20260504081006 | 7 | 212 | 0.0 | 3.2 | 0.00 | 0.00 | 0.00 | 47 | 1010.8 |
| 20260504080503 | 7 | 229 | 0.0 | 3.2 | 0.00 | 0.00 | 0.00 | 45 | 1010.9 |
| 20260504050509 | 16 | 296 | 1.6 | 11.3 | 0.00 | 0.00 | 0.00 | 28 | 1011.0 |
| 20260504050024 | 16 | 223 | 3.2 | 11.3 | 0.00 | 0.00 | 0.00 | 27 | 1011.0 |
| 20260504045510 | 16 | 247 | 3.2 | 11.3 | 0.00 | 0.00 | 0.00 | 27 | 1011.0 |
| 20260504045011 | 16 | 273 | 1.6 | 14.5 | 0.00 | 0.00 | 0.00 | 27 | 1011.1 |
| 20260504044508 | 16 | 257 | 3.2 | 14.5 | 0.00 | 0.00 | 0.00 | 27 | 1011.1 |
| 20260504044003 | 16 | 215 | 4.8 | 12.9 | 0.00 | 0.00 | 0.00 | 27 | 1011.2 |
| 20260504043504 | 16 | 232 | 3.2 | 14.5 | 0.00 | 0.00 | 0.00 | 27 | 1011.2 |
| 20260504043019 | 16 | 82 | 3.2 | 14.5 | 0.00 | 0.00 | 0.00 | 27 | 1011.2 |
| 20260504042508 | 16 | 223 | 4.8 | 14.5 | 0.00 | 0.00 | 0.00 | 27 | 1011.2 |
| 20260504042011 | 16 | 269 | 3.2 | 16.1 | 0.00 | 0.00 | 0.00 | 27 | 1011.3 |
| 20260504041525 | 16 | 277 | 3.2 | 16.1 | 0.00 | 0.00 | 0.00 | 27 | 1011.3 |
| 20260504041008 | 16 | 274 | 8.0 | 16.1 | 0.00 | 0.00 | 0.00 | 27 | 1011.4 |
| 20260504040504 | 16 | 267 | 6.4 | 16.1 | 0.00 | 0.00 | 0.00 | 27 | 1011.4 |
| 20260504040012 | 17 | 258 | 3.2 | 14.5 | 0.00 | 0.00 | 0.00 | 27 | 1011.4 |